Regional Weather Roundup
Issued by NWS Burlington, VT

Home | Current Version | Previous Version | Text Only | Print | Product List | Glossary On
Versions: 1 2 3 4 5 6 7 8 9 10 11 12 13 14 15 16 17 18 19 20 21 22 23 24 25 26 27 28 29 30 31 32 33 34 35 36 37 38 39 40 41 42 43 44 45 46 47 48 49 50
000
ASUS41 KBTV 271730
RWRBTV
VERMONT REGIONAL WEATHER ROUNDUP
NATIONAL WEATHER SERVICE BURLINGTON VT
100 PM EDT WED JUL 27 2016

NOTE: "FAIR" INDICATES FEW OR NO CLOUDS BELOW 12,000 FEET WITH NO
SIGNIFICANT WEATHER AND/OR OBSTRUCTIONS TO VISIBILITY.

* THESE REPORTS ARE NOT UNDER NWS QUALITY CONTROL AND/OR DO NOT
  REPORT WEATHER SUCH AS PRECIPITATION AND FOG.

VTZ001>019-271800-
_____VERMONT_____


CITY           SKY/WX    TMP DP  RH WIND       PRES   REMARKS
BURLINGTON     FAIR      85  59  41 S7        29.90F
MONTPELIER     FAIR      82  59  45 NW6       29.99S
MORRISVILLE    PTSUNNY   81  62  52 CALM      29.94F
ST. JOHNSBURY*   N/A     83  63  50 MISG      29.91F
LYNDONVILLE*   FAIR      79  62  56 SW6       29.96F
MIDDLEBURY*    FAIR      85  58  38 S8        29.92F
RUTLAND*       PTSUNNY   80  62  54 CALM      29.95F
SPRINGFIELD    FAIR      86  57  37 VRB7      29.93F
HIGHGATE*      FAIR      85  66  52 W6        29.89F
NEWPORT*       FAIR      82  63  52 SW9       29.93F
BENNINGTON     FAIR      85  60  42 VRB6      29.97S
SUTTON*          N/A     77 N/A N/A MISG        N/A
MT. MANSFIELD*   N/A     70 N/A N/A NW15        N/A

_____LAKE CHAMPLAIN_____


CITY           SKY/WX    TMP DP  RH WIND       PRES   REMARKS
BURTON ISLAND*   N/A     77  66  69 S8          N/A
COLCHESTER RF*   N/A     77  68  73 S12         N/A

$$

NYZ007-026>031-035-052-083-087-271800-
_____NORTHERN NEW YORK_____


CITY           SKY/WX    TMP DP  RH WIND       PRES   REMARKS
PLATTSBURGH    SUNNY     81  67  62 SE13      29.89F
SARANAC LAKE   SUNNY     80  55  42 W12G17    29.97F
MASSENA        SUNNY     84  61  45 W12G17    29.90F
OGDENSBURG*    SUNNY     86  63  45 SW9G16    29.90S
POTSDAM*       SUNNY     86  63  45 SW8G18    29.91F
WATERTOWN      SUNNY     83  60  45 W14G20    29.95S
FT DRUM        SUNNY     84  55  37 W10       29.94F
ALBANY         MOSUNNY   84  59  42 W12       29.94F
GLENS FALLS    MOSUNNY   84  65  52 S7        29.93F

$$
NHZ002-005-011-271800-
_____NEW HAMPSHIRE_____


CITY           SKY/WX    TMP DP  RH WIND       PRES   REMARKS
LEBANON        MOSUNNY   86  61  42 VRB5      29.92F
KEENE          PTSUNNY   86  58  38 NW8       29.92F
MT WASHINGTON  MOSUNNY   59  48  67 NW1         N/A
PLYMOUTH       FAIR      86  55  34 W7        29.91F
WHITEFIELD     SUNNY     82  59  45 CALM      29.95F

$$

_____REGIONAL QUEBEC LOCATIONS_____


CITY           SKY/WX    TMP DP  RH WIND       PRES   REMARKS
MONTREAL       MOSUNNY   82  64  54 SW23G29   29.87S
QUEBEC CITY    MOSUNNY   82  66  57 W13G23    29.82F
SHERBROOKE     PTSUNNY   82  64  54 SW13G21   29.90F

_____REGIONAL ONTARIO LOCATIONS_____


CITY           SKY/WX    TMP DP  RH WIND       PRES   REMARKS
OTTAWA         PTSUNNY   84  64  51 SW8G17    29.88F

______KEY______
VSB  - VISIBILITY IN MILES
WCI  - WIND CHILL INDEX
HX   - HEAT INDEX
$$
NNNN




USA.gov is the U.S. government's official web portal to all federal, state and local government web resources and services.